[[{"header":{"parameterUnit":"m.s-1","parameterCategory":1,"la1":30.2991,"la2":30.254,"lo1":-89.0895,"lo2":-89.0444,"dy":0.0017,"dx":0.0017,"nx":28,"ny":28,"refTime":"2025-04-01T03:00:00:Z","depth":0,"parameterNumber":2,"parameterNumberName":"U-component_of_WINDS"},"data":[0,0,0,0,0,0,0,0,0,0,0,0,0,0,0,0,0,0,0,0,0,0,0,0,0,0,0,0,0,0,0,0,0,0,0,0,0,0,0,0,0,0,0,0,0,0,0,0,0,0,0,0,0,0,0,0,0,0,-4.685,-4.685,0,-4.6845,-4.6845,-4.6845,-4.6705,-4.6701,-4.6697,-4.6694,-4.6692,-4.6695,-4.6698,0,0,0,0,0,0,0,0,0,0,0,0,0,-4.6742,-4.6745,-4.685,-4.685,-4.685,-4.6845,-4.6845,-4.6845,-4.6705,-4.6701,-4.6697,-4.6692,-4.6691,-4.6695,-4.6699,0,0,0,0,0,0,0,0,0,0,0,0,0,-4.6769,-4.6746,-4.685,-4.6779,-4.6773,-4.6845,-4.6845,-4.6845,-4.6706,-4.6701,-4.6695,-4.669,-4.6689,-4.6694,-4.6699,-4.6839,0,0,-4.6714,-4.6716,0,0,0,0,0,0,0,0,-4.6767,-4.6773,-4.679,-4.6784,-4.6777,-4.677,-4.6806,-4.6843,-4.6708,-4.6732,-4.6694,-4.6688,-4.6722,-4.6724,-4.6735,-4.6838,-4.6838,-4.6715,-4.6718,-4.672,-4.6721,0,0,0,0,0,0,0,-4.6766,-4.6772,-4.6848,-4.679,-4.6783,-4.6749,-4.6747,-4.6812,-4.6758,-4.6729,-4.6719,-4.672,-4.6718,-4.6731,-4.6734,-4.6838,-4.6715,-4.6719,-4.6722,-4.6724,-4.7058,-4.7064,0,0,0,0,0,0,-4.6773,-4.6772,-4.6848,-4.6848,-4.6759,-4.6756,-4.6753,-4.6778,-4.6756,-4.6748,-4.6725,-4.6714,-4.6725,-4.6729,-4.6734,-4.6896,-4.672,-4.6725,-4.6727,-4.7052,-4.7059,-4.7066,0,0,0,0,0,0,-4.6771,-4.6781,-4.6848,-4.6807,-4.6813,-4.6763,-4.6792,-4.6781,-4.6793,-4.6753,-4.6743,-4.6748,-4.6721,-4.6727,-4.6814,-4.6894,-4.6727,-4.6731,-4.7045,-4.7054,-4.7062,-4.7223,0,0,0,0,0,0,-4.6769,-4.6781,-4.6833,-4.6809,-4.6816,-4.6928,-4.6797,-4.6784,-4.6802,-4.6787,-4.6772,-4.6764,-4.6717,-4.6807,-4.6819,-4.6898,-4.6735,-4.7038,-4.7049,-4.706,-4.721,-4.7236,-4.7258,0,0,0,0,0,-4.6765,-4.6878,-4.6836,-4.6846,-4.6879,-4.6932,-4.6936,-4.6879,-4.6809,-4.6861,-4.6836,-4.6765,-4.6884,-4.6817,-4.6829,-4.6911,-4.7032,-4.7046,-4.7059,-4.7199,-4.7231,-4.7258,0,0,0,0,0,0,-4.6913,-4.6874,-4.6826,-4.6935,-4.6938,-4.6909,-4.6972,-4.6914,-4.6937,-4.6923,-4.6851,-4.6849,-4.6948,-4.6938,-4.6865,-4.7046,-4.6946,-4.6962,-4.7049,-4.7078,-4.7102,-4.7102,-4.6739,0,0,0,0,0,-4.6958,-4.7004,-4.6968,-4.7067,-4.7071,-4.7022,-4.7043,-4.6999,-4.7,-4.7,-4.6981,-4.6986,-4.7024,-4.7051,-4.7084,-4.7209,-4.7204,-4.7271,-4.7295,-4.7315,-4.733,-4.7397,-4.7427,-4.7109,-4.7109,-4.7109,0,0,-4.7052,-4.7036,-4.7069,-4.7096,-4.7093,-4.7144,-4.7024,-4.7082,-4.7119,-4.7009,-4.709,-4.7077,-4.7077,-4.7185,-4.7231,-4.718,-4.7417,-4.7332,-4.7348,-4.7352,-4.7414,-4.7444,-4.7471,-4.7118,-4.7116,-4.7115,0,0,-4.7248,-4.724,-4.7322,-4.7323,-4.732,-4.7287,-4.7308,-4.7288,-4.7275,-4.7355,-4.7274,-4.7318,-4.7385,-4.7389,-4.74,-4.7602,-4.7538,-4.7615,-4.774,-4.7806,-4.7831,-4.7853,-4.7926,-4.7953,-4.763,-4.763,-4.763,0,-4.7364,-4.7436,-4.7372,-4.7436,-4.7451,-4.7355,-4.7439,-4.7442,-4.7451,-4.7465,-4.7407,-4.7491,-4.7484,-4.7591,-4.7641,-4.7653,-4.7675,-4.7615,-4.7833,-4.7854,-4.7874,-4.7942,-4.797,-4.7639,-4.7638,-4.7637,-4.7637,0,-4.758,-4.7632,-4.7699,-4.771,-4.7733,-4.7807,-4.7756,-4.7787,-4.7741,-4.7715,-4.78,-4.7789,-4.7818,-4.7841,-4.7797,-4.7943,-4.7912,-4.7845,-4.7742,-4.7914,-4.7977,-4.8003,-4.7653,-4.7649,-4.7647,-4.7644,0,0,-4.7867,-4.7844,-4.7869,-4.7874,-4.7865,-4.7905,-4.7976,-4.8004,-4.8033,-4.8043,-4.8101,-4.8162,-4.8101,-4.8113,-4.807,-4.8128,-4.829,-4.8054,-4.8053,-4.8098,-4.8452,-4.8502,-4.8533,-4.8248,-4.8253,-4.8256,-4.8452,0,-4.8057,-4.8175,-4.8121,-4.8245,-4.8293,-4.8203,-4.8265,-4.8268,-4.8246,-4.8285,-4.8261,-4.8305,-4.822,-4.8228,-4.8281,-4.8259,-4.836,-4.8244,-4.8303,-4.8305,-4.8305,-4.8566,-4.8619,-4.8803,-4.8476,-4.848,-4.8483,0,-4.8293,-4.8314,-4.8443,-4.8428,-4.8446,-4.8502,-4.8526,-4.8563,-4.8565,-4.8546,-4.8562,-4.8505,-4.8575,-4.8475,-4.8571,-4.8493,-4.8515,-4.8508,-4.8513,-4.8516,-4.8404,-4.8576,-4.886,-4.8889,-4.8521,-4.8518,-4.8516,0,-4.849,-4.855,-4.8636,-4.8642,-4.8627,-4.8669,-4.8664,-4.8661,-4.8683,-4.8704,-4.8717,-4.8747,-4.8763,-4.8788,-4.8742,-4.8673,-4.8846,-4.8741,-4.8832,-4.8834,-4.8872,-4.887,-4.9164,-4.8887,-4.8886,-4.8886,-4.8885,0,-4.8708,-4.879,-4.8724,-4.8777,-4.8868,-4.8806,-4.8898,-4.8884,-4.8883,-4.8932,-4.8857,-4.8905,-4.8842,-4.8885,-4.8849,-4.8935,-4.8943,-4.893,-4.892,-4.8937,-4.8939,-4.8949,-4.8935,-4.8893,-4.8891,-4.889,-4.8889,0,-4.8942,-4.8901,-4.8988,-4.8967,-4.8964,-4.9032,-4.9014,-4.9063,-4.9037,-4.9101,-4.9112,-4.9072,-4.9119,-4.9076,-4.912,-4.9096,-4.9212,-4.9183,-4.9211,-4.9202,-4.9297,-4.9289,-4.9607,-4.9646,-4.9345,-4.9348,-4.935,0,-4.9083,-4.9145,-4.9131,-4.9158,-4.9158,-4.9204,-4.9225,-4.9169,-4.9195,-4.9204,-4.9252,-4.9292,-4.9321,-4.9401,-4.9376,-4.9411,-4.9382,-4.9492,-4.9387,-4.9403,-4.9384,-4.9381,-4.9387,-4.9513,-4.9516,-4.9519,-4.9522,0,-4.9338,-4.9315,-4.9349,-4.9377,-4.9406,-4.9425,-4.9439,-4.9466,-4.9408,-4.9442,-4.9488,-4.9511,-4.9557,-4.9599,-4.9626,-4.9623,-4.9564,-4.9555,-4.9578,-4.9596,-4.961,-4.9604,-4.9269,-4.9548,-4.9545,-4.9543,-4.9542,-4.9541,-4.953,-4.9581,-4.958,-4.9621,-4.9625,-4.9641,-4.9686,-4.9666,-4.9704,-4.9736,-4.9701,-4.9759,-4.9762,-4.9792,-4.9797,-4.9842,-4.9796,-4.9829,-4.9838,-4.9847,-4.9861,-4.9603,-4.9847,-4.9846,-4.9845,-4.9844,-4.9844,0,-4.9781,-4.9776,-4.9815,-4.9837,-4.987,-4.9811,-4.9824,-4.9856,-4.9907,-4.9915,-4.9946,-5.0001,-5.0042,-5.0022,-5.0057,-5.0098,-5.0072,-5.0109,-5.0105,-5.0106,-4.9899,-4.9876,-5.013,-5.013,-5.0129,-5.0129,-5.0129,-5.0129,-4.9915,-4.9999,-4.9977,-5.0064,-5.0058,-5.0114,-5.0127,-5.0141,-5.0147,-5.0211,-5.0245,-5.0231,-5.0229,-5.0264,-5.03,-5.0293,-5.031,-5.0357,-5.0341,-5.0148,-5.012,-5.0093,-5.0071,-5.0361,-5.0362,-5.0543,-5.0545,-5.0546]},{"header":{"parameterUnit":"m.s-1","parameterCategory":1,"la1":30.2991,"la2":30.254,"lo1":-89.0895,"lo2":-89.0444,"dy":0.0017,"dx":0.0017,"nx":28,"ny":28,"refTime":"2025-04-01T03:00:00:Z","depth":0,"parameterNumber":3,"parameterNumberName":"V-component_of_WINDS"},"data":[0,0,0,0,0,0,0,0,0,0,0,0,0,0,0,0,0,0,0,0,0,0,0,0,0,0,0,0,0,0,0,0,0,0,0,0,0,0,0,0,0,0,0,0,0,0,0,0,0,0,0,0,0,0,0,0,0,0,1.2214,1.2214,0,1.2259,1.226,1.226,1.2317,1.2317,1.2318,1.2319,1.2363,1.2364,1.2364,0,0,0,0,0,0,0,0,0,0,0,0,0,1.2175,1.2176,1.2214,1.2214,1.2215,1.2259,1.226,1.226,1.2316,1.2318,1.2319,1.232,1.2363,1.2364,1.2364,0,0,0,0,0,0,0,0,0,0,0,0,0,1.2203,1.2176,1.2214,1.2248,1.2252,1.2259,1.226,1.2261,1.2316,1.2318,1.2319,1.232,1.2363,1.2364,1.2364,1.234,0,0,1.2366,1.2366,0,0,0,0,0,0,0,0,1.2202,1.2205,1.2243,1.2246,1.225,1.2284,1.2262,1.2287,1.2316,1.2292,1.2319,1.2321,1.2336,1.2339,1.2344,1.2342,1.2344,1.2366,1.2366,1.2366,1.2366,0,0,0,0,0,0,0,1.22,1.2203,1.2232,1.2243,1.2248,1.2261,1.2267,1.2267,1.2305,1.2294,1.2298,1.2303,1.2338,1.2343,1.2345,1.2345,1.2366,1.2366,1.2367,1.2367,1.2327,1.2326,0,0,0,0,0,0,1.2193,1.2201,1.223,1.2233,1.2229,1.2261,1.2267,1.2271,1.2306,1.2312,1.2302,1.2305,1.2342,1.2345,1.2347,1.2322,1.2366,1.2367,1.2367,1.2329,1.2327,1.2326,0,0,0,0,0,0,1.2192,1.2195,1.2228,1.2218,1.2224,1.226,1.2265,1.2272,1.2277,1.2312,1.2318,1.23,1.2343,1.2346,1.2342,1.2324,1.2367,1.2367,1.233,1.2328,1.2326,1.2271,0,0,0,0,0,0,1.219,1.2194,1.2185,1.2218,1.2224,1.2222,1.2264,1.2272,1.2278,1.2283,1.2312,1.2318,1.2344,1.2341,1.2343,1.2326,1.2368,1.2332,1.2329,1.2327,1.2274,1.2267,1.2261,0,0,0,0,0,1.2189,1.2167,1.2184,1.2188,1.2214,1.2221,1.2225,1.2256,1.2276,1.2268,1.229,1.2317,1.2326,1.234,1.2342,1.2325,1.2333,1.233,1.2327,1.2277,1.2269,1.2261,0,0,0,0,0,0,1.213,1.2172,1.2192,1.218,1.2197,1.2231,1.2221,1.2246,1.2256,1.2261,1.2299,1.2305,1.2296,1.231,1.2325,1.2305,1.2334,1.2331,1.2295,1.2287,1.2281,1.2277,1.2368,0,0,0,0,0,1.2116,1.2119,1.2155,1.2142,1.2149,1.2184,1.2188,1.2211,1.223,1.2237,1.2259,1.2275,1.2282,1.2286,1.2294,1.2278,1.2285,1.2267,1.226,1.2255,1.2251,1.2245,1.2237,1.2316,1.2316,1.2316,0,0,1.2087,1.211,1.2109,1.2131,1.2146,1.2148,1.2189,1.2189,1.2191,1.2237,1.2234,1.2251,1.2272,1.2262,1.2258,1.2274,1.2232,1.2251,1.2246,1.2246,1.2241,1.2233,1.2226,1.2314,1.2314,1.2314,0,0,1.2034,1.2052,1.2043,1.2058,1.2082,1.2106,1.2104,1.2135,1.2148,1.2146,1.2181,1.2183,1.2194,1.2208,1.2217,1.2172,1.2197,1.2173,1.2138,1.213,1.2124,1.2119,1.2103,1.2096,1.217,1.217,1.217,0,1.1994,1.1999,1.2035,1.2033,1.2042,1.2085,1.2076,1.2089,1.2114,1.2119,1.2136,1.2152,1.2169,1.2163,1.2152,1.2157,1.2156,1.2169,1.2122,1.2117,1.2113,1.2098,1.2092,1.2167,1.2168,1.2168,1.2168,0,1.1949,1.1952,1.1942,1.1966,1.1974,1.1968,1.2003,1.2007,1.203,1.2051,1.2049,1.2072,1.2086,1.2086,1.2108,1.2084,1.2092,1.2116,1.2145,1.2102,1.2088,1.2083,1.2163,1.2164,1.2165,1.2166,0,0,1.1858,1.1904,1.19,1.1912,1.1943,1.1945,1.1943,1.1957,1.1959,1.1976,1.1974,1.1984,1.2006,1.2015,1.204,1.2033,1.1996,1.2058,1.2059,1.2045,1.1971,1.1952,1.1945,1.2014,1.2013,1.2012,1.1969,0,1.1811,1.1809,1.1842,1.1831,1.1834,1.1876,1.1874,1.1892,1.1913,1.1919,1.1942,1.1947,1.1976,1.1983,1.1979,1.2002,1.1982,1.2006,1.2012,1.2012,1.2004,1.1938,1.1919,1.1876,1.1964,1.1963,1.1962,0,1.1754,1.1769,1.1758,1.1791,1.1794,1.1791,1.1808,1.1813,1.1835,1.1851,1.1862,1.1891,1.189,1.192,1.192,1.1935,1.194,1.1952,1.1951,1.1952,1.1984,1.1936,1.1864,1.1857,1.1955,1.1955,1.1956,0,1.1689,1.1706,1.1702,1.1711,1.1749,1.1746,1.1762,1.1786,1.1793,1.1808,1.1813,1.1827,1.1834,1.1845,1.1876,1.1895,1.1872,1.1904,1.1885,1.1884,1.1877,1.1876,1.1803,1.1881,1.1882,1.1882,1.1882,0,1.1632,1.1623,1.1674,1.1671,1.1663,1.1702,1.1693,1.1713,1.1734,1.1736,1.1773,1.1774,1.1816,1.1822,1.1847,1.1843,1.1846,1.1858,1.1865,1.1854,1.1852,1.1857,1.186,1.188,1.188,1.1881,1.1881,0,1.1557,1.159,1.1589,1.1625,1.1635,1.1627,1.1659,1.1658,1.1682,1.1684,1.1686,1.1724,1.1732,1.1765,1.1782,1.1799,1.1787,1.18,1.1779,1.1783,1.1761,1.1763,1.1687,1.1679,1.1763,1.1763,1.1762,0,1.1517,1.1512,1.1549,1.1554,1.1568,1.1574,1.1583,1.1621,1.1628,1.1654,1.165,1.1662,1.1673,1.1686,1.1714,1.1727,1.174,1.1713,1.1742,1.1732,1.1739,1.1739,1.1738,1.1706,1.1705,1.1704,1.1703,0,1.1444,1.1461,1.1472,1.1488,1.1497,1.1512,1.1528,1.153,1.1573,1.1579,1.1589,1.1598,1.1616,1.1627,1.1645,1.1661,1.1689,1.1694,1.169,1.1679,1.1667,1.1673,1.1761,1.1695,1.1696,1.1697,1.1697,1.1697,1.1385,1.1383,1.1409,1.142,1.1437,1.1452,1.1453,1.1478,1.1488,1.1506,1.1528,1.1535,1.1559,1.1587,1.1601,1.1607,1.1622,1.1616,1.1615,1.1613,1.1607,1.1667,1.161,1.1611,1.1611,1.1611,1.1611,0,1.1313,1.1333,1.1342,1.1365,1.1374,1.1401,1.1422,1.1427,1.1433,1.1453,1.1465,1.1477,1.1489,1.1519,1.1533,1.1533,1.1546,1.1535,1.1535,1.1538,1.1593,1.1595,1.1524,1.1524,1.1524,1.1524,1.1524,1.1524,1.1277,1.1275,1.1295,1.1302,1.1322,1.133,1.1339,1.1354,1.137,1.1382,1.1393,1.1413,1.1437,1.1454,1.1466,1.1475,1.1478,1.1463,1.1475,1.1526,1.1534,1.1542,1.1544,1.1464,1.1464,1.142,1.142,1.1419]}]]